Weather in Akrotiri

Greece     36°21′23″N   25°23′36″E
temp.,
°C
wind,
m/s
gust,
m/s
humid.,
%
clouds,
%
prec.,
mm/h
press.,
hPa
HPBL,
m
26 february, fri
fri2623:00+15n88710 0.0 1026747
02:00+15n88740 0.0 1025706
05:00+14n77730 0.0 1025662
08:00+14n66720 0.0 1025738
11:00+14nnw33670 0.0 1026702
14:00+14nnw55710 0.0 1024672
17:00+15nnw77710 0.0 1023679
20:00+15nnw44690 0.0 1023665
27 february, sat
sat2723:00+14n44690 0.0 1022743
02:00+14nnw787716 0.0 1021849
05:00+14wnw446849 0.0 1020937
08:00+14w236631 0.0 1020716
11:00+15nw44700 0.0 1020799
14:00+15nnw33660 0.0 1019742
17:00+15nw55700 0.0 1018710
20:00+15wnw66730 0.0 1018789
28 february, sun
sun2823:00+15wnw55700 0.0 1018673
02:00+15nw55700 0.0 1018685
05:00+15nnw56700 0.0 1017632
08:00+15nnw67730 0.0 1017832
11:00+15nnw79783 0.0 1018817
14:00+16n89714 0.0 10181010
17:00+16n1012680 0.0 1018982
20:00+15n1012700 0.0 10201026
1 march, mon
mon123:00+15n1214650 0.0 10211004
02:00+14n1315600 0.0 10221080
05:00+13n1517550 0.0 10221205
08:00+12n1315570 0.0 10231414
11:00+12n1315590 0.0 10241300
14:00+12n1215640 0.0 10231217
17:00+12n1315650 0.0 10221306
20:00+13n1416650 0.0 10241336
2 march, tue
tue223:00+12n1517620 0.0 10251387
02:00+12n1618610 0.0 10251521
05:00+11n1619640 0.0 10251464
08:00+11n1619670 0.0 10261517
11:00+11n1719690 0.0 10261487
14:00+11n1618680 0.0 10261504
17:00+12n1618650 0.0 10261640
20:00+12n1618660 0.0 10271725